Orbital Elements at Epoch 2459200.5 (2020-Dec-17.0) TDB
Reference: JPL 26 (heliocentric ecliptic J2000)
Element | Value | Uncertainty (1-sigma) | Units |
e | .1975354107055676 | 4.0326e-08 | |
a | 2.239762382500123 | 5.9581e-09 | au |
q | 1.797330000390081 | 9.133e-08 | au |
i | 6.226842911496898 | 4.1859e-06 | deg |
node | 6.209356195414749 | 2.9876e-05 | deg |
peri | 356.9613695460851 | 3.1043e-05 | deg |
M | 121.1426470160144 | 8.014e-06 | deg |
tp | 2458788.501244264032 (2019-Nov-01.00124426) | 2.6994e-05 | TDB |
period | 1224.338048724836 3.35 | 4.8854e-06 1.338e-08 | d yr |
n | .2940364390169405 | 1.1733e-09 | deg/d |
Q | 2.682194764610165 | 7.135e-09 | au |
|
| | Orbit Determination Parameters
Additional Information
|